Flag for Sao Tome and Principe Weather past 2 weeks in São Tomé, Sao Tome and Principe

Now
81 °F

Broken clouds.


Feels Like: 86 °F
Forecast: 77 / 80 °F
Wind: 14 mph from South

Location: S. Tome

Current Time: Oct 25, 2014 at 1:39:07 PM

Latest Report: Oct 25, 2014 at 1:00 PM


Visibility: N/A

Pressure: 29.86 "Hg

Humidity: 84%

Dew point: 75 °F

Location of São ToméLocation

Historic Weather in São Tomé — Graph

°F

São Tomé temperature yesterday

Maximum temperature yesterday: 82 °F (at 10:00 AM)
Minimum temperature yesterday: 75 °F (at 4:00 AM)
Average temperature yesterday: 78 °F

Past Weeks' High & Low Weather Summary

 TemperatureHumidityPressure
High86 °F (Oct 16, 1:00 PM)100% (Oct 21, 9:00 AM)30.01 "Hg (Oct 21, 9:00 AM)
Low72 °F (Oct 13, 1:00 AM)66% (Oct 14, 1:00 PM)29.83 "Hg (Oct 10, 2:00 PM)
Average79 °F85%29.91 "Hg
* Reported Oct 10 12:00 Noon — Oct 25 12:00 Noon, São Tomé, Weather by CustomWeather, © 2014

Note: Actual official high and low records may vary slightly from our data, if they occured in-between our weather recording intervals... More about our weather records

Advertising

São Tomé weather history for previous 24 hours

 ConditionsComfort  
Time TempWeatherWind HumidityBarometerVisibility
12:00 PM
Oct 25
82 °FBroken clouds.16 mph84%29.86 "HgN/A
11:00 AM81 °FBroken clouds.16 mph84%29.89 "HgN/A
9:00 AM79 °FBroken clouds.12 mph89%29.92 "HgN/A
8:00 AM77 °FPartly sunny.7 mph94%29.92 "HgN/A
7:00 AM75 °FPartly sunny.2 mph94%29.92 "HgN/A
6:00 AM75 °FPartly sunny.2 mph94%29.89 "HgN/A
5:00 AM75 °FPassing clouds.5 mph94%29.89 "HgN/A
3:00 AM75 °FPassing clouds.2 mph94%29.86 "HgN/A
2:00 AM75 °FPassing clouds.5 mph94%29.89 "HgN/A
12:00 AM73 °FPassing clouds.2 mph94%29.89 "HgN/A
11:00 PM
Oct 24
75 °FPassing clouds.5 mph94%29.92 "HgN/A
10:00 PM75 °FPassing clouds.2 mph94%29.92 "HgN/A
9:00 PM75 °FPassing clouds.2 mph94%29.92 "HgN/A
8:00 PM77 °FPassing clouds.No wind94%29.92 "HgN/A
7:00 PM77 °FPassing clouds.5 mph89%29.89 "HgN/A
5:00 PM79 °FBroken clouds.7 mph89%29.86 "HgN/A
2:00 PM81 °FThunderstorms. Broken clouds.9 mph89%29.89 "HgN/A
Weather by CustomWeather, © 2014

See weather overviewHow to use our weather pages